Terug naar catalogus

CZ-4 DEB

ActiefSSO
NORAD 27677·DEBRIS·🇨🇳 China

Gelanceerd Oct 14, 1999 vanaf Taiyuan Satellite Launch Center

Loading…

Volgende Passages (komende 24 uur)

TLE

VersSource: Space-Track

Epoch: Sep 14, 2026, 03:15 UTC

1 27677U 99057MR  26257.13579605  .00000255  00000-0  79567-4 0  9997
2 27677  98.5694 314.6386 0074066 176.8010 212.3821 14.47765947282767

Volg CZ-4 DEB in realtime met AllMySat

Download on the App Store